Vertical_Velocity
0 0 0 0 1 1 1 -0 -1 -1 -0 0 -0 -1 -2 -1 -1 -2 -3 -2 -2 -2 -3 -3 -2 -1 -2 -2 -1 -1 -1 -1 -1 -1 -1 -1 -2 -2 -2 -3 -4 -5 -5 -5 -4 -3 -2 -1 -2 -3 -4 -5 -3 -3 -2 -1 -0 -1 -3 -4 -3 -2 -2 -2 -2 -2 -3 -4 -5
0 0 0 0 0 0 1 0 -1 -1 -1 -1 -1 -1 -1 -1 -1 -1 -2 -2 -2 -2 -2 -2 -2 -1 -1 -2 -1 -1 -0 -1 -1 -1 -1 -1 -2 -2 -3 -4 -5 -5 -5 -4 -2 -1 -1 -1 -1 -2 -3 -5 -3 -2 -2 -2 -1 -1 -3 -4 -3 -2 -1 -1 -1 -2 -3 -3 -4
1 0 0 -0 -0 -0 0 0 -0 -1 -2 -2 -2 -1 -1 -2 -1 -1 -1 -1 -1 -2 -2 -2 -2 -2 -1 -1 -1 -1 -0 -0 -1 -1 -1 -1 -2 -3 -4 -4 -5 -6 -5 -4 -2 -1 -0 -0 -1 -1 -2 -3 -2 -2 -1 -1 -1 -2 -2 -3 -2 -2 -1 -1 -0 -1 -2 -4 -5
1 1 0 -0 -0 0 1 1 0 -0 -1 -1 -2 -2 -2 -2 -1 -0 -0 -0 -1 -1 -2 -1 -1 -1 -1 -0 -0 -1 -1 -1 -1 -1 -1 -1 -2 -3 -4 -4 -5 -5 -4 -3 -1 -0 -0 0 -0 -1 -1 -2 -1 -1 -0 -0 -1 -2 -2 -2 -1 -1 -0 -1 -1 -1 -1 -3 -4
2 1 0 0 -0 0 1 2 1 0 -1 -1 -1 -2 -3 -3 -2 -1 -0 -0 -1 -1 -1 -1 -0 -0 -0 -0 0 0 -0 -1 -1 -1 -1 -2 -2 -3 -4 -4 -4 -4 -3 -2 -1 0 1 1 0 -0 -0 -1 -1 -0 1 1 0 -1 -2 -3 -3 -2 -1 -0 -1 -1 -2 -2 -4
3 1 -0 -1 -1 -1 -0 1 2 1 0 -1 -0 -1 -2 -3 -2 -1 -0 0 -0 -0 -1 -1 -0 -0 -0 -0 -0 0 -0 -1 -1 -1 -1 -2 -2 -4 -4 -5 -4 -4 -3 -2 -1 -0 1 2 1 -0 -1 0 -0 -1 -1 1 1 -0 -2 -3 -3 -3 -3 -2 -1 -1 -1 -2 -3
4 2 1 -1 -1 -1 -0 0 1 1 0 -0 -0 -1 -2 -3 -2 -1 0 1 1 -0 -1 -1 -0 -0 0 0 0 0 0 -0 -0 -1 -1 -2 -3 -3 -4 -4 -4 -3 -3 -2 -1 -0 0 2 2 1 -1 -1 -0 -0 -0 1 1 -0 -1 -3 -3 -2 -2 -2 -1 -0 -1 -2 -2
3 2 1 -0 -1 -0 -0 0 1 1 1 -0 -1 -2 -2 -2 -1 -1 -0 0 1 0 -0 -0 -0 1 1 2 1 1 1 1 0 -0 -1 -1 -2 -3 -3 -3 -3 -3 -2 -1 0 1 1 1 2 2 1 0 -0 -0 0 1 0 -0 -1 -2 -3 -3 -2 -2 -1 -0 -0 -1 -2
1 -0 -1 -1 -1 -1 -0 -0 1 2 1 0 -1 -2 -2 -2 -1 -0 0 1 1 1 1 0 0 1 1 2 2 2 1 1 1 1 -0 -1 -1 -2 -3 -3 -3 -3 -2 -1 1 1 2 2 2 1 1 2 1 1 1 1 0 -0 -1 -1 -1 -2 -3 -2 -2 -1 -0 -0 -2
-0 -1 -2 -2 -2 -2 -1 -1 0 1 2 1 -1 -2 -3 -2 -1 -0 1 2 2 1 0 -0 0 1 1 2 3 2 2 1 1 1 1 -0 -1 -2 -2 -2 -2 -1 -1 -2 -0 1 2 3 2 1 0 0 1 2 1 1 1 -0 -1 -1 -1 -1 -2 -2 -2 -2 -1 -1 -1
-1 -2 -2 -1 -2 -2 -2 -1 -0 0 1 1 -1 -2 -3 -3 -1 -0 0 1 2 1 0 0 1 1 2 3 4 3 2 1 1 1 1 0 -1 -2 -1 -1 -1 -0 -0 -0 -0 1 2 3 2 2 0 -1 0 1 2 1 1 -0 -1 -2 -1 -1 -1 -1 -1 -1 -2 -2 -2
-2 -2 -2 -1 -2 -2 -2 -1 -0 0 1 1 -1 -2 -3 -2 -1 -0 1 1 2 2 1 1 2 2 3 4 4 3 2 2 1 1 1 0 -1 -1 -1 -1 -1 -0 -0 -0 1 2 3 3 3 2 1 -1 -0 1 2 2 1 0 -1 -2 -1 -1 -1 -1 -1 -1 -1 -1 -2
-2 -2 -2 -2 -2 -2 -2 -1 -1 0 1 0 -1 -2 -2 -2 -1 0 2 2 2 2 2 1 2 3 4 4 4 4 3 2 1 1 1 1 -0 -1 -1 -1 -0 0 0 0 1 2 3 2 3 3 2 0 -0 0 1 2 2 1 -0 -1 -1 -1 -1 -0 -1 -1 -1 -1 -1
-1 -2 -2 -2 -2 -2 -1 -1 -0 0 1 0 -1 -2 -2 -2 -1 0 2 3 3 3 2 2 2 2 4 5 5 4 3 2 2 2 1 0 -0 -0 -0 -1 -0 1 1 1 1 2 3 3 3 3 3 2 0 -0 0 2 2 1 0 -0 -1 -1 -0 -0 -0 -1 -1 -1 -1
-1 -1 -2 -2 -2 -1 -1 -0 -0 0 1 0 -1 -1 -2 -2 -2 -0 1 2 3 3 3 3 2 2 3 5 6 5 4 3 2 2 2 1 -0 -0 -0 -0 -0 1 1 2 2 2 2 3 3 3 3 3 1 1 1 1 1 0 0 -0 -0 -0 -0 -0 -1 -1 -1 -0 -0
-0 -1 -2 -2 -1 -1 -0 -0 -0 0 1 0 -0 -1 -1 -2 -2 -1 1 2 2 2 3 3 3 3 3 4 6 6 5 4 3 3 3 1 0 -0 -0 -0 0 1 2 3 2 2 1 2 3 4 4 3 2 2 1 1 1 -0 -1 -1 -1 -1 -1 -1 -1 -1 -0 0 -1
-0 -1 -2 -1 -1 -0 -0 -0 -0 0 1 1 -0 -0 -1 -1 -2 -1 -0 1 2 2 2 2 2 3 4 3 4 6 6 5 4 4 4 3 2 1 0 -0 1 2 4 5 4 2 1 1 2 3 4 4 3 2 2 2 1 0 -1 -1 -1 -2 -2 -2 -1 -1 -0 -1 -2
-0 -1 -1 -1 -0 0 1 0 0 0 1 1 1 0 -0 -1 -1 -1 -1 0 2 3 3 2 1 2 4 4 4 6 7 7 5 4 4 4 2 2 1 1 2 3 5 5 4 3 2 1 1 2 3 3 2 2 2 2 2 1 -0 -1 -2 -2 -2 -2 -2 -1 -1 -2 -3
-0 -1 -1 -1 0 1 1 1 0 0 0 1 1 1 0 -0 -0 -0 -0 -0 1 2 3 2 1 1 2 4 5 6 7 8 7 5 4 3 3 2 1 1 2 4 5 6 4 3 2 1 2 2 2 2 2 2 2 2 2 1 -0 -1 -2 -2 -2 -2 -2 -2 -3 -4 -4
0 -0 -1 -0 1 2 2 1 0 0 0 1 1 1 1 -0 0 0 1 0 1 2 2 3 2 1 1 2 4 5 6 7 7 6 4 3 2 2 1 2 3 5 6 6 4 3 2 1 2 2 2 2 2 1 1 2 2 1 -0 -1 -1 -2 -2 -3 -3 -4 -5 -5 -4
-0 -0 -0 0 1 2 2 1 1 0 1 1 1 2 2 1 1 1 1 1 2 2 2 2 2 1 1 2 4 5 6 7 7 6 5 4 3 2 2 4 5 6 6 5 4 3 2 2 2 2 3 2 2 1 2 2 2 1 0 -0 -1 -2 -3 -3 -4 -5 -6 -5 -3
-0 -0 0 1 1 2 2 1 1 1 1 1 1 2 2 2 2 2 1 1 2 2 2 2 2 1 1 2 4 6 7 7 7 6 5 4 3 2 2 5 7 6 5 4 3 2 2 2 2 3 3 2 2 1 1 2 2 2 1 -0 -1 -2 -4 -5 -5 -5 -4 -3 -1
-0 -0 0 1 1 1 2 2 1 1 1 1 1 1 2 2 2 2 2 1 2 2 2 2 1 1 1 2 4 6 7 7 6 5 4 4 4 3 2 4 7 7 5 4 3 3 2 2 2 3 3 3 2 1 1 1 2 2 1 -0 -1 -2 -3 -4 -4 -3 -2 -1 0
0 0 0 1 1 1 2 2 2 1 1 1 1 2 2 2 2 2 2 1 1 2 2 1 1 1 1 1 2 5 8 9 7 5 4 2 3 4 5 6 6 6 5 4 3 3 3 3 3 3 3 2 1 1 0 0 0 1 0 -0 -0 -1 -1 -1 -1 -1 -1 -1 -0
0 0 0 1 1 1 1 2 2 2 1 1 2 2 2 2 3 2 2 1 1 1 2 1 0 0 0 1 2 4 7 9 9 7 5 3 3 4 6 8 6 4 4 3 3 3 2 3 4 4 4 4 2 1 -0 -1 -1 -0 -0 0 0 1 1 1 1 -0 -1 -2 -2
1 1 1 1 2 2 2 2 2 2 2 2 2 2 2 2 2 3 2 2 1 1 1 2 1 0 0 1 2 3 5 7 7 6 6 5 5 6 6 6 5 4 3 3 3 3 2 2 2 4 5 6 4 3 2 0 -0 -0 0 1 1 1 1 1 0 -1 -2 -2 -3
1 1 1 1 2 2 3 3 3 3 3 2 2 2 2 2 2 2 2 2 1 1 1 1 2 2 1 1 2 4 6 6 6 5 5 6 9 9 8 5 4 3 3 3 3 3 2 1 1 2 4 6 6 5 4 3 2 1 1 1 1 1 1 1 0 -1 -2 -2 -3
1 1 1 1 2 2 3 3 4 3 3 3 2 2 2 2 2 2 2 1 1 0 0 0 1 1 2 1 2 4 6 6 6 6 7 9 10 9 7 4 2 2 2 3 4 3 2 1 1 1 3 5 6 5 5 4 3 2 2 1 1 1 1 1 1 0 -1 -1 -2
0 0 1 1 1 2 2 3 4 4 3 3 3 2 2 2 2 2 1 1 0 -0 0 0 -0 0 1 1 2 3 4 5 7 9 11 11 9 7 4 2 2 2 2 3 4 3 2 0 0 1 2 3 4 5 4 3 3 2 2 2 1 1 1 1 0 0 0 -0 -1
0 0 1 1 1 2 2 3 4 4 4 3 3 2 2 2 1 1 1 0 -0 -0 1 2 2 2 2 3 3 3 3 6 10 12 12 10 8 5 3 1 1 1 2 3 3 3 2 0 -0 0 1 2 4 4 3 2 2 1 1 1 1 1 0 -0 -0 -0 0 -0 -0
1 1 1 1 1 1 1 1 2 3 3 4 4 3 3 2 2 1 1 0 -0 -0 -0 1 3 3 3 3 3 4 6 12 12 10 8 6 5 4 2 1 1 1 1 2 3 2 1 0 0 0 1 2 3 3 2 2 1 1 1 1 1 0 0 -0 -0 -0 -0 -0 -1
3 3 2 2 1 0 -0 0 1 2 3 4 4 4 4 3 3 2 1 1 1 0 -0 0 2 3 2 1 1 5 10 14 10 6 3 4 4 4 3 1 1 1 1 2 2 2 1 0 0 1 1 2 3 3 2 1 1 1 0 1 0 0 -0 -0 -1 -1 -0 -0 -1
4 4 3 3 1 -0 -1 -0 0 1 2 3 4 5 5 4 2 1 1 1 1 2 3 4 5 5 4 2 4 8 11 10 4 2 2 4 4 4 3 1 0 0 1 2 2 2 1 0 0 1 1 2 3 3 2 1 1 0 0 -0 -0 -0 -0 -0 -1 -1 -0 -0 -1
4 4 3 2 1 -0 -0 -0 1 2 2 2 3 4 5 5 4 2 2 2 3 5 6 7 7 6 4 4 7 8 7 4 2 1 3 4 4 4 2 1 -0 -0 0 1 2 1 1 1 1 1 2 2 3 3 2 2 1 -0 -0 -0 -1 -1 -1 -1 -1 -1 -1 -0 -1
4 3 2 0 -0 -0 0 1 2 2 2 2 2 2 3 5 5 6 5 5 6 6 6 6 5 3 3 4 5 5 3 1 1 2 3 4 4 4 2 0 -1 -1 -0 1 1 1 1 0 1 1 2 3 3 3 3 2 1 0 -0 -1 -1 -1 -1 -1 -1 -1 -1 -1 -1
2 1 0 -1 -1 -0 1 2 3 3 3 2 2 3 3 4 5 6 7 7 7 6 5 4 2 2 2 3 3 2 1 1 2 2 3 4 4 3 2 0 -1 -1 -0 1 1 1 1 0 1 1 2 3 3 3 2 2 1 0 -0 -1 -1 -1 -1 -1 -1 -1 -1 -1 -1
-0 -1 -1 -2 -1 -0 1 3 4 4 4 4 4 4 5 6 6 6 6 6 6 4 3 2 2 2 2 2 1 1 1 1 2 2 2 3 3 3 2 1 -0 -1 -0 1 1 1 1 0 1 1 2 3 3 2 2 2 1 0 -0 -1 -1 -1 -1 -1 -1 -1 -1 -1 -1
-1 -1 -1 -1 -0 0 2 3 4 5 5 5 5 5 6 6 6 6 5 5 4 4 3 2 2 2 1 -0 -1 -1 -0 1 1 2 3 3 3 3 2 1 -0 -1 -0 0 1 1 0 0 1 2 2 3 3 3 3 2 1 0 -0 -1 -1 -2 -2 -2 -2 -2 -1 -1 -1
-1 -0 1 1 2 2 3 3 4 5 5 5 5 6 6 6 6 5 5 4 4 3 3 2 1 -0 -1 -1 -1 -1 0 1 2 3 3 4 3 3 2 1 -0 -1 -1 -0 0 0 0 0 1 2 3 4 4 3 3 3 2 1 -0 -1 -1 -2 -2 -2 -2 -1 -1 -1 -1
1 2 3 3 3 3 3 3 3 4 5 6 7 7 7 7 6 5 4 3 2 1 0 -0 -1 -1 -1 -0 -0 1 1 2 3 3 3 3 3 2 1 1 -0 -1 -1 -0 0 0 -0 0 1 2 3 4 4 4 3 3 2 1 0 -1 -1 -1 -2 -2 -2 -1 -1 -1 -2
3 3 3 2 2 2 2 2 3 4 5 7 8 8 7 6 5 3 2 0 -0 -1 -1 -1 -1 -0 0 1 1 1 1 2 1 1 2 2 1 1 1 1 -0 -1 -1 -1 -0 -0 -0 -0 1 1 3 4 4 4 3 3 3 2 0 -1 -1 -1 -1 -2 -2 -2 -2 -2 -2
Height
5710 5708 5706 5704 5701 5699 5696 5694 5691 5689 5686 5684 5681 5679 5676 5673 5670 5668 5665 5662 5659 5656 5653 5650 5647 5644 5640 5637 5635 5631 5628 5625 5622 5619 5615 5611 5608 5604 5600 5595 5591 5587 5583 5579 5575 5571 5567 5563 5559 5554 5550 5545 5540 5535 5530 5526 5521 5515 5510 5504 5498 5493 5487 5481 5475 5469 5463 5457 5451
5707 5705 5702 5700 5698 5695 5693 5690 5688 5685 5683 5680 5678 5675 5672 5670 5667 5664 5661 5658 5655 5652 5649 5646 5643 5640 5637 5634 5631 5628 5625 5621 5618 5615 5611 5608 5604 5600 5595 5591 5587 5583 5580 5575 5571 5567 5563 5559 5555 5550 5546 5541 5537 5532 5527 5522 5517 5512 5506 5500 5495 5489 5484 5478 5472 5466 5460 5454 5448
5703 5701 5698 5696 5694 5692 5689 5687 5684 5682 5679 5676 5674 5671 5669 5666 5663 5660 5658 5655 5652 5649 5646 5643 5640 5637 5634 5630 5627 5624 5621 5618 5614 5611 5607 5604 5600 5596 5592 5588 5584 5580 5576 5572 5568 5564 5560 5555 5551 5547 5542 5538 5533 5528 5524 5519 5514 5509 5503 5498 5492 5486 5480 5475 5469 5464 5458 5452 5446
5699 5697 5695 5692 5690 5688 5686 5683 5681 5678 5675 5673 5670 5668 5665 5662 5659 5657 5654 5651 5648 5645 5642 5639 5636 5633 5630 5627 5624 5620 5617 5614 5611 5607 5604 5600 5596 5592 5588 5584 5580 5576 5572 5569 5565 5560 5556 5552 5548 5544 5539 5535 5530 5525 5520 5515 5510 5505 5500 5495 5489 5484 5478 5472 5467 5461 5455 5449 5443
5696 5693 5691 5689 5686 5684 5682 5680 5677 5675 5672 5669 5667 5664 5661 5658 5655 5653 5650 5647 5645 5642 5639 5636 5633 5630 5626 5624 5620 5617 5614 5611 5607 5604 5600 5596 5593 5589 5585 5581 5577 5573 5569 5565 5561 5557 5553 5549 5544 5540 5536 5531 5527 5522 5517 5513 5508 5502 5497 5491 5486 5480 5475 5469 5464 5458 5452 5447 5441
5692 5690 5687 5685 5683 5680 5678 5676 5674 5671 5668 5665 5663 5660 5657 5655 5652 5649 5647 5644 5641 5638 5635 5632 5629 5626 5623 5620 5617 5614 5610 5607 5604 5600 5596 5593 5589 5585 5581 5577 5574 5570 5566 5562 5558 5554 5550 5545 5541 5537 5532 5528 5524 5519 5514 5510 5505 5500 5494 5488 5483 5478 5472 5466 5461 5455 5450 5444 5439
5689 5686 5684 5681 5679 5677 5675 5672 5670 5667 5665 5662 5659 5656 5654 5651 5648 5645 5643 5640 5637 5635 5631 5629 5626 5623 5620 5616 5613 5610 5607 5604 5600 5597 5593 5589 5585 5582 5578 5574 5570 5566 5562 5558 5554 5550 5546 5542 5538 5534 5529 5525 5520 5515 5511 5506 5502 5497 5491 5486 5480 5475 5469 5464 5458 5453 5448 5442 5436
5685 5682 5680 5678 5675 5673 5671 5668 5666 5664 5661 5658 5655 5653 5650 5647 5645 5642 5639 5636 5634 5631 5628 5625 5622 5619 5616 5613 5610 5606 5603 5600 5597 5593 5590 5586 5582 5579 5575 5571 5567 5563 5559 5555 5551 5547 5542 5538 5535 5530 5526 5522 5517 5512 5508 5504 5499 5494 5489 5483 5477 5471 5466 5461 5456 5451 5445 5440 5435
5681 5679 5676 5674 5671 5669 5667 5665 5662 5660 5657 5655 5652 5649 5646 5644 5641 5638 5635 5633 5630 5627 5624 5621 5618 5615 5612 5609 5606 5603 5600 5597 5594 5590 5586 5583 5579 5575 5571 5568 5564 5560 5555 5552 5548 5544 5540 5535 5531 5527 5523 5519 5514 5510 5505 5500 5496 5491 5486 5480 5475 5469 5463 5458 5453 5448 5443 5438 5433
5677 5675 5672 5670 5668 5665 5663 5661 5659 5656 5654 5651 5648 5645 5642 5640 5637 5635 5632 5629 5626 5624 5620 5618 5615 5612 5609 5606 5603 5600 5596 5593 5590 5587 5583 5580 5576 5572 5568 5565 5560 5556 5552 5548 5545 5540 5536 5532 5528 5524 5520 5516 5511 5507 5502 5498 5493 5488 5483 5478 5472 5467 5461 5455 5451 5446 5441 5436 5430
5673 5671 5669 5666 5664 5661 5659 5657 5655 5652 5650 5647 5644 5641 5639 5636 5633 5631 5628 5625 5623 5620 5617 5614 5611 5608 5605 5602 5599 5596 5593 5590 5586 5583 5580 5576 5572 5569 5565 5561 5557 5553 5549 5545 5541 5537 5533 5529 5525 5521 5517 5512 5509 5504 5500 5495 5490 5486 5481 5475 5470 5465 5459 5454 5448 5443 5439 5434 5429
5669 5667 5665 5662 5660 5657 5655 5653 5651 5649 5646 5643 5640 5638 5635 5632 5630 5627 5624 5622 5619 5616 5613 5610 5608 5605 5602 5598 5595 5592 5589 5586 5583 5580 5576 5573 5569 5565 5561 5558 5554 5550 5546 5542 5538 5534 5530 5526 5522 5518 5514 5509 5505 5501 5497 5492 5488 5483 5478 5473 5467 5462 5457 5452 5446 5441 5436 5431 5426
5665 5663 5661 5658 5656 5654 5651 5649 5647 5645 5642 5640 5637 5634 5631 5628 5626 5623 5621 5618 5615 5613 5610 5607 5604 5601 5598 5595 5592 5589 5586 5583 5580 5576 5573 5570 5566 5562 5558 5555 5550 5547 5543 5539 5535 5531 5527 5523 5519 5515 5511 5506 5502 5498 5494 5490 5485 5480 5475 5470 5465 5460 5455 5450 5444 5439 5434 5429 5424
5661 5659 5657 5655 5652 5650 5647 5645 5643 5640 5638 5635 5633 5630 5627 5625 5622 5620 5617 5615 5612 5609 5606 5603 5600 5597 5595 5591 5588 5585 5582 5579 5576 5573 5570 5566 5562 5559 5555 5551 5547 5543 5540 5535 5531 5528 5524 5520 5516 5512 5508 5504 5499 5495 5491 5487 5483 5478 5473 5468 5463 5458 5452 5447 5442 5437 5432 5427 5422
5657 5655 5653 5650 5648 5646 5644 5641 5639 5637 5634 5632 5629 5626 5624 5621 5618 5616 5613 5611 5608 5605 5603 5600 5597 5594 5591 5588 5585 5581 5578 5575 5573 5570 5566 5563 5559 5555 5552 5548 5544 5540 5536 5532 5528 5525 5521 5517 5513 5509 5505 5501 5496 5492 5488 5484 5480 5475 5471 5466 5461 5455 5450 5445 5440 5435 5430 5426 5421
5653 5651 5649 5646 5644 5642 5640 5638 5635 5633 5630 5628 5625 5623 5620 5617 5615 5612 5610 5607 5604 5601 5599 5596 5593 5590 5587 5584 5581 5578 5575 5572 5569 5566 5563 5559 5555 5552 5548 5545 5540 5537 5533 5529 5525 5521 5517 5514 5510 5506 5502 5498 5494 5490 5485 5481 5477 5472 5468 5463 5458 5453 5448 5443 5439 5434 5429 5424 5419
5650 5647 5645 5642 5640 5638 5636 5634 5631 5629 5626 5624 5621 5619 5616 5614 5611 5608 5606 5603 5600 5598 5595 5592 5589 5586 5583 5580 5577 5575 5572 5569 5565 5563 5560 5556 5552 5549 5545 5541 5537 5533 5530 5525 5522 5518 5514 5510 5507 5504 5500 5495 5491 5487 5483 5478 5474 5470 5465 5460 5455 5451 5446 5441 5436 5432 5426 5421 5416
5645 5643 5641 5639 5636 5634 5632 5630 5627 5625 5623 5620 5618 5615 5612 5610 5607 5604 5602 5600 5597 5594 5591 5588 5585 5583 5580 5576 5574 5571 5568 5565 5562 5559 5556 5552 5549 5545 5541 5538 5534 5530 5526 5522 5519 5515 5511 5508 5504 5500 5497 5493 5489 5485 5480 5476 5472 5467 5463 5458 5453 5448 5444 5439 5434 5429 5424 5419 5414
5641 5639 5637 5635 5633 5630 5628 5626 5624 5621 5619 5616 5614 5611 5609 5606 5603 5600 5598 5595 5593 5590 5588 5585 5581 5579 5576 5573 5570 5567 5565 5562 5559 5555 5552 5549 5545 5541 5538 5534 5530 5526 5523 5519 5515 5512 5508 5505 5501 5497 5494 5490 5486 5482 5478 5474 5470 5465 5460 5455 5451 5446 5441 5437 5432 5427 5422 5417 5412
5637 5635 5633 5630 5629 5627 5625 5622 5620 5617 5615 5613 5610 5607 5605 5602 5599 5597 5594 5592 5589 5586 5584 5581 5578 5575 5572 5569 5566 5564 5561 5558 5555 5552 5548 5545 5541 5538 5534 5530 5526 5523 5520 5516 5512 5509 5505 5501 5498 5494 5491 5487 5483 5479 5475 5471 5467 5462 5458 5453 5449 5444 5440 5435 5430 5424 5419 5415 5410
5633 5631 5629 5627 5625 5623 5621 5618 5616 5614 5611 5609 5606 5604 5601 5598 5595 5593 5590 5588 5585 5583 5580 5577 5574 5571 5568 5565 5562 5560 5557 5555 5552 5548 5545 5541 5538 5534 5531 5527 5523 5520 5516 5513 5510 5506 5502 5499 5495 5491 5488 5484 5480 5477 5473 5469 5465 5460 5455 5451 5446 5442 5437 5432 5427 5422 5417 5413 5409
5629 5627 5625 5623 5621 5619 5617 5615 5612 5610 5607 5605 5602 5600 5597 5595 5592 5589 5587 5584 5582 5579 5576 5573 5570 5567 5564 5561 5559 5556 5554 5551 5548 5545 5541 5538 5534 5531 5527 5524 5520 5516 5513 5510 5506 5503 5499 5495 5492 5489 5485 5482 5478 5474 5470 5466 5462 5458 5454 5449 5444 5440 5435 5430 5425 5420 5416 5412 5408
5625 5623 5621 5619 5617 5615 5613 5610 5608 5606 5603 5601 5598 5596 5593 5591 5588 5585 5583 5580 5578 5575 5572 5570 5567 5564 5560 5558 5555 5553 5550 5547 5544 5541 5538 5535 5531 5527 5524 5520 5517 5514 5510 5507 5503 5500 5496 5492 5489 5486 5483 5479 5475 5471 5468 5464 5460 5456 5451 5447 5442 5438 5433 5428 5424 5419 5415 5410 5406
5621 5619 5617 5615 5613 5611 5609 5607 5604 5602 5600 5597 5595 5592 5590 5587 5585 5582 5579 5576 5574 5571 5569 5565 5563 5560 5557 5554 5551 5549 5547 5544 5541 5538 5534 5531 5528 5524 5520 5517 5514 5510 5507 5504 5500 5496 5493 5490 5486 5483 5480 5476 5473 5469 5465 5461 5457 5453 5449 5445 5440 5436 5431 5427 5422 5418 5414 5409 5405
5617 5615 5613 5611 5609 5607 5605 5603 5600 5598 5595 5593 5591 5588 5586 5583 5581 5578 5575 5573 5570 5567 5565 5562 5559 5556 5553 5550 5548 5545 5543 5540 5538 5534 5531 5527 5524 5521 5517 5514 5510 5507 5504 5500 5497 5494 5490 5487 5484 5481 5477 5474 5470 5466 5462 5458 5455 5451 5447 5443 5439 5434 5430 5425 5421 5416 5412 5407 5403
5613 5611 5610 5607 5605 5603 5601 5599 5596 5594 5592 5589 5587 5584 5582 5580 5577 5574 5571 5569 5566 5563 5561 5558 5555 5552 5550 5547 5545 5542 5539 5537 5534 5531 5527 5524 5520 5517 5514 5511 5507 5504 5500 5497 5494 5491 5488 5485 5482 5479 5475 5472 5468 5464 5460 5456 5452 5448 5445 5441 5437 5432 5428 5424 5419 5414 5409 5405 5400
5609 5607 5605 5603 5601 5599 5597 5595 5592 5590 5588 5585 5583 5580 5578 5575 5573 5570 5568 5565 5562 5560 5557 5554 5552 5549 5546 5543 5541 5539 5536 5533 5530 5527 5524 5520 5517 5514 5510 5507 5504 5500 5497 5494 5491 5488 5485 5482 5479 5476 5473 5470 5466 5462 5458 5454 5450 5446 5443 5439 5435 5430 5426 5422 5417 5412 5408 5403 5399
5605 5603 5601 5599 5597 5595 5593 5591 5588 5586 5584 5581 5579 5576 5574 5571 5569 5566 5564 5561 5558 5555 5553 5550 5548 5545 5543 5540 5538 5535 5533 5530 5527 5524 5520 5517 5514 5511 5507 5503 5500 5497 5494 5491 5488 5485 5482 5479 5477 5474 5471 5468 5464 5460 5456 5452 5449 5445 5441 5437 5433 5428 5424 5420 5415 5410 5406 5402 5397
5601 5599 5597 5595 5593 5591 5589 5587 5584 5582 5580 5577 5575 5572 5570 5567 5565 5563 5560 5557 5554 5552 5549 5546 5544 5541 5539 5537 5534 5531 5529 5526 5524 5520 5517 5514 5510 5507 5503 5500 5497 5494 5491 5488 5485 5482 5479 5476 5474 5471 5468 5465 5462 5458 5454 5450 5447 5443 5439 5435 5431 5426 5422 5418 5413 5409 5405 5400 5396
5596 5595 5592 5590 5589 5586 5585 5582 5580 5578 5575 5573 5571 5568 5566 5564 5561 5559 5556 5553 5550 5548 5545 5543 5540 5538 5535 5533 5530 5528 5525 5523 5520 5517 5514 5510 5507 5503 5500 5496 5493 5490 5488 5485 5482 5479 5476 5474 5471 5469 5466 5463 5459 5456 5452 5448 5445 5441 5437 5433 5429 5424 5420 5416 5411 5407 5403 5399 5395
5592 5590 5588 5586 5584 5582 5580 5578 5576 5574 5571 5569 5567 5565 5562 5560 5557 5555 5552 5549 5546 5544 5541 5539 5536 5534 5532 5530 5527 5525 5522 5520 5517 5514 5510 5506 5503 5500 5496 5493 5490 5487 5485 5482 5479 5476 5474 5471 5469 5466 5463 5460 5457 5453 5450 5446 5442 5438 5435 5430 5426 5422 5418 5414 5410 5405 5401 5397 5393
5588 5586 5584 5582 5580 5578 5575 5574 5571 5569 5567 5565 5563 5560 5558 5556 5553 5550 5548 5545 5542 5540 5537 5535 5533 5530 5528 5526 5524 5522 5520 5517 5513 5509 5506 5503 5500 5496 5493 5490 5487 5484 5481 5479 5476 5474 5471 5469 5466 5463 5460 5457 5454 5450 5447 5443 5440 5436 5432 5428 5424 5420 5416 5412 5408 5404 5400 5395 5392
5584 5581 5580 5577 5575 5573 5571 5569 5567 5565 5563 5561 5559 5557 5554 5552 5549 5546 5544 5541 5538 5536 5534 5531 5530 5527 5525 5523 5521 5519 5516 5513 5509 5505 5503 5500 5497 5494 5490 5487 5484 5481 5479 5476 5474 5471 5469 5466 5463 5461 5458 5455 5451 5448 5445 5441 5437 5434 5430 5426 5422 5418 5414 5410 5406 5402 5398 5394 5390
5580 5578 5575 5574 5571 5569 5567 5565 5563 5561 5559 5557 5555 5552 5550 5548 5545 5542 5540 5537 5535 5533 5530 5529 5527 5525 5522 5520 5518 5515 5512 5509 5505 5503 5500 5497 5494 5491 5488 5484 5481 5479 5476 5474 5471 5469 5466 5463 5461 5458 5455 5452 5449 5446 5442 5439 5435 5431 5428 5424 5420 5416 5412 5408 5404 5400 5396 5392 5389
5576 5574 5572 5570 5568 5565 5563 5561 5559 5557 5555 5553 5550 5548 5546 5544 5541 5539 5536 5534 5531 5529 5527 5525 5523 5521 5519 5517 5514 5511 5509 5506 5503 5500 5497 5494 5491 5488 5485 5482 5479 5476 5474 5471 5469 5466 5463 5461 5458 5455 5453 5450 5447 5444 5440 5436 5433 5429 5425 5421 5418 5414 5410 5406 5402 5399 5395 5391 5387
5572 5570 5568 5566 5564 5561 5560 5557 5555 5553 5551 5549 5547 5544 5542 5540 5538 5535 5533 5530 5528 5526 5524 5522 5520 5518 5516 5514 5511 5508 5506 5503 5500 5497 5495 5492 5489 5485 5482 5479 5476 5474 5471 5469 5466 5463 5461 5458 5456 5453 5450 5447 5445 5441 5438 5434 5431 5427 5423 5420 5415 5412 5408 5405 5401 5397 5393 5390 5386
5568 5566 5564 5562 5560 5558 5556 5554 5552 5550 5547 5545 5543 5541 5538 5536 5534 5531 5529 5527 5525 5523 5521 5519 5517 5515 5513 5510 5508 5505 5503 5500 5497 5495 5492 5489 5486 5483 5480 5477 5474 5471 5469 5466 5464 5461 5458 5456 5453 5450 5448 5445 5442 5439 5436 5432 5429 5425 5421 5417 5414 5410 5406 5403 5399 5395 5391 5388 5385
5565 5563 5560 5558 5556 5554 5552 5550 5548 5546 5544 5542 5539 5537 5535 5533 5530 5528 5526 5524 5522 5520 5518 5516 5515 5512 5510 5507 5505 5502 5500 5497 5495 5492 5489 5486 5483 5480 5477 5474 5471 5469 5466 5464 5461 5458 5456 5453 5451 5448 5445 5443 5440 5437 5434 5430 5427 5423 5420 5415 5412 5408 5405 5401 5397 5394 5390 5386 5383
5561 5559 5557 5555 5553 5551 5549 5547 5545 5543 5540 5538 5535 5533 5531 5529 5527 5525 5523 5521 5519 5517 5515 5514 5511 5509 5507 5504 5501 5499 5496 5494 5491 5489 5486 5484 5481 5478 5475 5472 5469 5466 5464 5461 5459 5456 5453 5451 5448 5446 5443 5440 5438 5435 5431 5428 5425 5421 5418 5414 5410 5406 5403 5399 5396 5392 5388 5385 5382
5558 5556 5554 5552 5550 5548 5545 5544 5541 5539 5537 5534 5532 5530 5528 5526 5524 5522 5520 5518 5516 5514 5512 5510 5508 5505 5503 5500 5498 5496 5493 5491 5488 5486 5483 5481 5478 5475 5472 5470 5466 5464 5461 5459 5456 5453 5451 5448 5446 5444 5441 5438 5435 5433 5430 5426 5423 5420 5416 5412 5408 5405 5401 5397 5394 5390 5387 5383 5380
5554 5552 5550 5549 5546 5544 5542 5540 5538 5535 5533 5531 5529 5527 5525 5523 5521 5519 5517 5515 5513 5511 5509 5507 5504 5502 5500 5497 5495 5493 5490 5488 5485 5483 5480 5478 5475 5473 5470 5467 5464 5461 5458 5456 5453 5451 5448 5446 5444 5441 5439 5436 5434 5430 5427 5424 5421 5418 5414 5410 5407 5403 5400 5396 5392 5389 5385 5382 5379